Time,TemperatureF,DewpointF,PressureIn,WindDirection,WindDirectionDegrees,WindSpeedMPH,WindSpeedGustMPH,Humidity,HourlyPrecipIn,Conditions,Clouds,dailyrainin,SolarRadiationWatts/m^2,SoftwareType,DateUTC
2013-05-30 00:09:00,64.9,61.0,29.76,South,179,2.0,6.0,88,0.00,,,0.00,0,weatherlink.com 1.10,2013-05-30 04:09:00,
2013-05-30 00:24:00,64.5,61.0,29.76,SSE,159,3.0,7.0,89,0.00,,,0.00,0,weatherlink.com 1.10,2013-05-30 04:24:00,
2013-05-30 00:39:00,64.0,61.0,29.76,SSW,202,0.0,5.0,89,0.00,,,0.00,0,weatherlink.com 1.10,2013-05-30 04:39:00,
2013-05-30 00:54:00,63.6,61.0,29.76,South,187,0.0,6.0,90,0.00,,,0.00,0,weatherlink.com 1.10,2013-05-30 04:54:00,
2013-05-30 01:09:00,63.4,61.0,29.77,South,187,2.0,3.0,90,0.00,,,0.00,0,weatherlink.com 1.10,2013-05-30 05:09:00,
2013-05-30 01:24:00,63.4,61.0,29.76,South,186,2.0,6.0,90,0.00,,,0.00,0,weatherlink.com 1.10,2013-05-30 05:24:00,
2013-05-30 01:39:00,63.5,61.0,29.76,South,188,3.0,9.0,90,0.00,,,0.00,0,weatherlink.com 1.10,2013-05-30 05:39:00,
2013-05-30 01:54:00,63.4,61.0,29.75,South,186,1.0,4.0,90,0.00,,,0.00,0,weatherlink.com 1.10,2013-05-30 05:54:00,
2013-05-30 02:09:00,63.2,60.0,29.74,SSE,162,2.0,2.0,90,0.00,,,0.00,0,weatherlink.com 1.10,2013-05-30 06:09:00,
2013-05-30 02:24:00,63.0,60.0,29.76,South,172,1.0,5.0,91,0.00,,,0.00,0,weatherlink.com 1.10,2013-05-30 06:24:00,
2013-05-30 02:39:00,63.0,60.0,29.75,SSE,159,2.0,7.0,90,0.00,,,0.00,0,weatherlink.com 1.10,2013-05-30 06:39:00,
2013-05-30 02:54:00,63.0,60.0,29.75,South,184,2.0,8.0,90,0.00,,,0.00,0,weatherlink.com 1.10,2013-05-30 06:54:00,
2013-05-30 03:09:00,63.0,60.0,29.75,SSE,163,0.0,6.0,90,0.00,,,0.00,0,weatherlink.com 1.10,2013-05-30 07:09:00,
2013-05-30 03:24:00,63.0,60.0,29.75,SSE,166,0.0,4.0,90,0.00,,,0.00,0,weatherlink.com 1.10,2013-05-30 07:24:00,
2013-05-30 03:39:00,62.9,60.0,29.74,SSE,166,1.0,5.0,89,0.00,,,0.00,0,weatherlink.com 1.10,2013-05-30 07:39:00,
2013-05-30 03:54:00,62.8,60.0,29.75,South,169,3.0,6.0,90,0.00,,,0.00,0,weatherlink.com 1.10,2013-05-30 07:54:00,
2013-05-30 04:09:00,62.8,60.0,29.75,SSE,150,3.0,9.0,89,0.00,,,0.00,0,weatherlink.com 1.10,2013-05-30 08:09:00,
2013-05-30 04:24:00,62.7,60.0,29.74,SSE,163,3.0,7.0,90,0.00,,,0.00,0,weatherlink.com 1.10,2013-05-30 08:24:00,
2013-05-30 04:39:00,62.5,60.0,29.75,South,187,1.0,7.0,90,0.00,,,0.00,0,weatherlink.com 1.10,2013-05-30 08:39:00,
2013-05-30 04:54:00,62.5,60.0,29.75,SSW,196,1.0,7.0,90,0.00,,,0.00,0,weatherlink.com 1.10,2013-05-30 08:54:00,
2013-05-30 05:09:00,62.3,59.0,29.75,South,169,2.0,8.0,90,0.00,,,0.00,0,weatherlink.com 1.10,2013-05-30 09:09:00,
2013-05-30 05:24:00,62.3,60.0,29.75,SSW,212,3.0,5.0,91,0.00,,,0.00,0,weatherlink.com 1.10,2013-05-30 09:24:00,
2013-05-30 05:39:00,62.2,60.0,29.75,SW,234,1.0,11.0,91,0.00,,,0.00,0,weatherlink.com 1.10,2013-05-30 09:39:00,
2013-05-30 05:54:00,62.2,60.0,29.77,SSE,161,0.0,4.0,91,0.00,,,0.00,0,weatherlink.com 1.10,2013-05-30 09:54:00,
2013-05-30 06:09:00,62.1,60.0,29.77,SSE,161,0.0,2.0,91,0.00,,,0.00,0,weatherlink.com 1.10,2013-05-30 10:09:00,
2013-05-30 06:24:00,61.7,59.0,29.76,SSE,161,0.0,0.0,92,0.00,,,0.00,7,weatherlink.com 1.10,2013-05-30 10:24:00,
2013-05-30 06:39:00,61.5,59.0,29.77,SSE,161,0.0,1.0,92,0.00,,,0.00,7,weatherlink.com 1.10,2013-05-30 10:39:00,
2013-05-30 06:55:00,61.3,59.0,29.76,SSE,161,0.0,0.0,93,0.00,,,0.00,7,weatherlink.com 1.10,2013-05-30 10:55:00,
2013-05-30 07:10:00,61.1,59.0,29.76,SSE,161,0.0,0.0,93,0.00,,,0.00,19,weatherlink.com 1.10,2013-05-30 11:10:00,
2013-05-30 07:25:00,61.3,60.0,29.76,SSE,161,0.0,0.0,94,0.00,,,0.00,32,weatherlink.com 1.10,2013-05-30 11:25:00,
2013-05-30 07:40:00,61.6,60.0,29.75,SSE,161,0.0,0.0,94,0.00,,,0.00,26,weatherlink.com 1.10,2013-05-30 11:40:00,
2013-05-30 07:55:00,62.0,60.0,29.76,SSE,161,0.0,1.0,94,0.00,,,0.00,42,weatherlink.com 1.10,2013-05-30 11:55:00,
2013-05-30 08:10:00,62.5,61.0,29.77,SSE,161,2.0,2.0,94,0.00,,,0.00,81,weatherlink.com 1.10,2013-05-30 12:10:00,
2013-05-30 08:25:00,63.8,62.0,29.77,SSE,161,0.0,2.0,92,0.00,,,0.00,84,weatherlink.com 1.10,2013-05-30 12:25:00,
2013-05-30 08:40:00,64.9,62.0,29.77,SSE,161,0.0,1.0,91,0.00,,,0.00,105,weatherlink.com 1.10,2013-05-30 12:40:00,
2013-05-30 08:55:00,65.9,63.0,29.77,SSE,161,0.0,1.0,90,0.00,,,0.00,153,weatherlink.com 1.10,2013-05-30 12:55:00,
2013-05-30 09:10:00,67.4,64.0,29.77,SSE,161,0.0,2.0,88,0.00,,,0.00,271,weatherlink.com 1.10,2013-05-30 13:10:00,
2013-05-30 09:25:00,69.5,65.0,29.77,SSE,158,6.0,10.0,85,0.00,,,0.00,425,weatherlink.com 1.10,2013-05-30 13:25:00,
2013-05-30 09:40:00,71.3,66.0,29.77,SSW,213,3.0,7.0,82,0.00,,,0.00,446,weatherlink.com 1.10,2013-05-30 13:40:00,
2013-05-30 09:55:00,72.8,66.0,29.76,South,180,3.0,7.0,79,0.00,,,0.00,510,weatherlink.com 1.10,2013-05-30 13:55:00,
2013-05-30 10:10:00,74.4,67.0,29.75,South,171,5.0,10.0,78,0.00,,,0.00,561,weatherlink.com 1.10,2013-05-30 14:10:00,
2013-05-30 10:25:00,75.5,67.0,29.74,South,181,7.0,15.0,75,0.00,,,0.00,612,weatherlink.com 1.10,2013-05-30 14:25:00,
2013-05-30 10:40:00,76.6,67.0,29.73,South,188,5.0,10.0,73,0.00,,,0.00,645,weatherlink.com 1.10,2013-05-30 14:40:00,
2013-05-30 10:55:00,78.3,68.0,29.74,SSW,212,2.0,7.0,71,0.00,,,0.00,687,weatherlink.com 1.10,2013-05-30 14:55:00,
2013-05-30 11:10:00,78.9,68.0,29.73,South,172,1.0,10.0,69,0.00,,,0.00,719,weatherlink.com 1.10,2013-05-30 15:10:00,
2013-05-30 11:25:00,79.7,68.0,29.73,West,259,3.0,11.0,68,0.00,,,0.00,759,weatherlink.com 1.10,2013-05-30 15:25:00,
2013-05-30 11:41:00,80.5,68.0,29.72,SE,144,6.0,11.0,66,0.00,,,0.00,789,weatherlink.com 1.10,2013-05-30 15:41:00,
2013-05-30 11:56:00,81.2,69.0,29.72,South,170,0.0,8.0,67,0.00,,,0.00,814,weatherlink.com 1.10,2013-05-30 15:56:00,
2013-05-30 12:11:00,82.5,68.0,29.71,SE,146,5.0,13.0,62,0.00,,,0.00,838,weatherlink.com 1.10,2013-05-30 16:11:00,
2013-05-30 12:26:00,83.2,68.0,29.71,SSW,201,5.0,10.0,61,0.00,,,0.00,851,weatherlink.com 1.10,2013-05-30 16:26:00,
2013-05-30 12:41:00,83.7,68.0,29.71,SSE,162,5.0,16.0,59,0.00,,,0.00,914,weatherlink.com 1.10,2013-05-30 16:41:00,
2013-05-30 12:56:00,83.4,68.0,29.71,SSE,161,7.0,13.0,61,0.00,,,0.00,984,weatherlink.com 1.10,2013-05-30 16:56:00,
2013-05-30 13:11:00,83.9,68.0,29.71,SE,142,7.0,18.0,59,0.00,,,0.00,301,weatherlink.com 1.10,2013-05-30 17:11:00,
2013-05-30 13:26:00,84.3,68.0,29.70,SSE,148,3.0,20.0,59,0.00,,,0.00,1129,weatherlink.com 1.10,2013-05-30 17:26:00,
2013-05-30 13:41:00,86.2,69.0,29.70,SSW,213,8.0,14.0,57,0.00,,,0.00,287,weatherlink.com 1.10,2013-05-30 17:41:00,
2013-05-30 13:56:00,85.2,69.0,29.70,SSE,163,4.0,11.0,58,0.00,,,0.00,322,weatherlink.com 1.10,2013-05-30 17:56:00,
2013-05-30 14:11:00,85.3,70.0,29.69,SW,214,2.0,13.0,60,0.00,,,0.00,984,weatherlink.com 1.10,2013-05-30 18:11:00,
2013-05-30 14:26:00,86.7,70.0,29.68,SSE,166,10.0,15.0,57,0.00,,,0.00,953,weatherlink.com 1.10,2013-05-30 18:26:00,
2013-05-30 14:41:00,88.2,68.0,29.67,South,178,5.0,16.0,51,0.00,,,0.00,926,weatherlink.com 1.10,2013-05-30 18:41:00,
2013-05-30 14:56:00,87.0,68.0,29.67,SSE,147,9.0,15.0,54,0.00,,,0.00,914,weatherlink.com 1.10,2013-05-30 18:56:00,
2013-05-30 15:11:00,87.6,68.0,29.67,South,179,12.0,15.0,53,0.00,,,0.00,942,weatherlink.com 1.10,2013-05-30 19:11:00,
2013-05-30 15:26:00,87.2,70.0,29.66,SE,138,4.0,10.0,56,0.00,,,0.00,819,weatherlink.com 1.10,2013-05-30 19:26:00,
2013-05-30 15:41:00,87.1,69.0,29.65,SSW,202,4.0,14.0,55,0.00,,,0.00,793,weatherlink.com 1.10,2013-05-30 19:41:00,
2013-05-30 15:56:00,87.4,69.0,29.64,SSE,164,8.0,12.0,55,0.00,,,0.00,770,weatherlink.com 1.10,2013-05-30 19:56:00,
2013-05-30 16:11:00,87.0,69.0,29.64,SSE,158,8.0,14.0,55,0.00,,,0.00,749,weatherlink.com 1.10,2013-05-30 20:11:00,
2013-05-30 16:26:00,87.1,69.0,29.63,SW,232,3.0,14.0,56,0.00,,,0.00,710,weatherlink.com 1.10,2013-05-30 20:26:00,
2013-05-30 16:41:00,87.2,69.0,29.63,South,171,6.0,12.0,55,0.00,,,0.00,677,weatherlink.com 1.10,2013-05-30 20:41:00,
2013-05-30 16:56:00,87.0,69.0,29.63,South,171,10.0,15.0,55,0.00,,,0.00,670,weatherlink.com 1.10,2013-05-30 20:56:00,
2013-05-30 17:11:00,86.4,69.0,29.62,South,186,2.0,15.0,57,0.00,,,0.00,480,weatherlink.com 1.10,2013-05-30 21:11:00,
2013-05-30 17:26:00,85.2,68.0,29.62,South,190,7.0,21.0,57,0.00,,,0.00,257,weatherlink.com 1.10,2013-05-30 21:26:00,
2013-05-30 17:41:00,84.4,69.0,29.63,SSE,161,8.0,17.0,61,0.00,,,0.00,195,weatherlink.com 1.10,2013-05-30 21:41:00,
2013-05-30 17:56:00,84.3,69.0,29.63,South,170,9.0,16.0,61,0.00,,,0.00,107,weatherlink.com 1.10,2013-05-30 21:56:00,
2013-05-30 18:11:00,83.8,69.0,29.63,South,175,5.0,13.0,61,0.00,,,0.00,109,weatherlink.com 1.10,2013-05-30 22:11:00,
2013-05-30 18:26:00,82.7,69.0,29.64,South,187,5.0,15.0,63,0.00,,,0.00,102,weatherlink.com 1.10,2013-05-30 22:26:00,
2013-05-30 18:41:00,81.6,69.0,29.66,South,177,4.0,16.0,65,0.00,,,0.00,54,weatherlink.com 1.10,2013-05-30 22:41:00,
2013-05-30 18:56:00,75.6,67.0,29.72,SE,144,9.0,29.0,74,0.10,,,0.10,0,weatherlink.com 1.10,2013-05-30 22:56:00,
2013-05-30 19:11:00,68.9,65.0,29.70,SSE,161,3.0,8.0,88,0.38,,,0.38,5,weatherlink.com 1.10,2013-05-30 23:11:00,
2013-05-30 19:26:00,67.4,65.0,29.68,SSW,207,1.0,7.0,92,0.39,,,0.39,0,weatherlink.com 1.10,2013-05-30 23:26:00,
2013-05-30 19:42:00,67.2,65.0,29.68,SSW,200,0.0,3.0,93,0.39,,,0.39,5,weatherlink.com 1.10,2013-05-30 23:42:00,
2013-05-30 19:56:00,67.3,66.0,29.68,SSW,200,0.0,1.0,94,0.27,,,0.39,11,weatherlink.com 1.10,2013-05-30 23:56:00,
2013-05-30 20:11:00,67.1,66.0,29.68,SSW,200,0.0,0.0,95,0.01,,,0.39,16,weatherlink.com 1.10,2013-05-31 00:11:00,
2013-05-30 20:26:00,67.2,66.0,29.68,SSW,200,0.0,0.0,95,0.01,,,0.40,18,weatherlink.com 1.10,2013-05-31 00:26:00,
2013-05-30 20:41:00,67.2,66.0,29.68,SSW,200,0.0,0.0,95,0.01,,,0.40,19,weatherlink.com 1.10,2013-05-31 00:41:00,
2013-05-30 20:56:00,67.1,66.0,29.67,SSW,200,0.0,0.0,96,0.01,,,0.40,16,weatherlink.com 1.10,2013-05-31 00:56:00,
2013-05-30 21:11:00,67.3,66.0,29.66,SSW,198,1.0,3.0,96,0.01,,,0.40,9,weatherlink.com 1.10,2013-05-31 01:11:00,
2013-05-30 21:26:00,67.9,67.0,29.66,South,182,2.0,4.0,96,0.00,,,0.40,0,weatherlink.com 1.10,2013-05-31 01:26:00,
2013-05-30 21:41:00,68.4,67.0,29.68,South,188,2.0,6.0,96,0.00,,,0.40,0,weatherlink.com 1.10,2013-05-31 01:41:00,
2013-05-30 21:57:00,68.6,67.0,29.70,SW,215,10.0,14.0,94,0.11,,,0.51,0,weatherlink.com 1.10,2013-05-31 01:57:00,
2013-05-30 22:11:00,68.4,67.0,29.67,SSW,198,4.0,8.0,94,0.18,,,0.58,0,weatherlink.com 1.10,2013-05-31 02:11:00,
2013-05-30 22:26:00,68.1,67.0,29.67,South,188,0.0,4.0,95,0.18,,,0.58,0,weatherlink.com 1.10,2013-05-31 02:26:00,
2013-05-30 22:41:00,67.8,66.0,29.68,SSW,213,2.0,7.0,94,0.19,,,0.59,0,weatherlink.com 1.10,2013-05-31 02:41:00,
2013-05-30 22:57:00,67.1,65.0,29.67,SW,215,1.0,6.0,93,0.07,,,0.59,0,weatherlink.com 1.10,2013-05-31 02:57:00,
2013-05-30 23:12:00,66.4,64.0,29.68,South,184,1.0,5.0,93,0.01,,,0.59,0,weatherlink.com 1.10,2013-05-31 03:12:00,
2013-05-30 23:27:00,65.9,64.0,29.68,South,190,0.0,3.0,94,0.01,,,0.59,0,weatherlink.com 1.10,2013-05-31 03:27:00,
2013-05-30 23:42:00,66.2,65.0,29.69,SSW,193,4.0,11.0,96,0.00,,,0.59,0,weatherlink.com 1.10,2013-05-31 03:42:00,
2013-05-30 23:57:00,67.2,66.0,29.69,South,178,4.0,8.0,95,0.04,,,0.63,0,weatherlink.com 1.10,2013-05-31 03:57:00,